Year,Month,Day,Hour,Minute,Value (Times are PST for temperature in C)
2010,04,16,00,00,4.70
2010,04,16,00,01,4.70
2010,04,16,00,02,4.70
2010,04,16,00,03,4.70
2010,04,16,00,04,4.70
2010,04,16,00,05,4.70
2010,04,16,00,06,4.70
2010,04,16,00,07,4.70
2010,04,16,00,08,4.70
2010,04,16,00,09,4.70
2010,04,16,00,10,4.70
2010,04,16,00,11,4.70
2010,04,16,00,12,4.70
2010,04,16,00,13,4.70
2010,04,16,00,14,4.70
2010,04,16,00,15,4.70
2010,04,16,00,16,4.70
2010,04,16,00,17,4.70
2010,04,16,00,18,4.70
2010,04,16,00,19,4.70
2010,04,16,00,20,4.60
2010,04,16,00,21,4.60
2010,04,16,00,22,4.60
2010,04,16,00,23,4.60
2010,04,16,00,24,4.60
2010,04,16,00,25,4.60
2010,04,16,00,26,4.60
2010,04,16,00,27,4.50
2010,04,16,00,28,4.50
2010,04,16,00,29,4.50
2010,04,16,00,30,4.50
2010,04,16,00,31,4.50
2010,04,16,00,32,4.50
2010,04,16,00,33,4.50
2010,04,16,00,34,4.50
2010,04,16,00,35,4.50
2010,04,16,00,36,4.50
2010,04,16,00,37,4.50
2010,04,16,00,38,4.50
2010,04,16,00,39,4.50
2010,04,16,00,40,4.50
2010,04,16,00,41,4.50
2010,04,16,00,42,4.50
2010,04,16,00,43,4.50
2010,04,16,00,44,4.50
2010,04,16,00,45,4.40
2010,04,16,00,46,4.40
2010,04,16,00,47,4.40
2010,04,16,00,48,4.40
2010,04,16,00,49,4.40
2010,04,16,00,50,4.30
2010,04,16,00,51,4.30
2010,04,16,00,52,4.30
2010,04,16,00,53,4.30
2010,04,16,00,54,4.30
2010,04,16,00,55,4.30
2010,04,16,00,56,4.20
2010,04,16,00,57,4.20
2010,04,16,00,58,4.20
2010,04,16,00,59,4.20
2010,04,16,01,00,4.20
2010,04,16,01,01,4.20
2010,04,16,01,02,4.20
2010,04,16,01,03,4.20
2010,04,16,01,04,4.20
2010,04,16,01,05,4.20
2010,04,16,01,06,4.10
2010,04,16,01,07,4.10
2010,04,16,01,08,4.20
2010,04,16,01,09,4.20
2010,04,16,01,10,4.20
2010,04,16,01,11,4.20
2010,04,16,01,12,4.30
2010,04,16,01,13,4.30
2010,04,16,01,14,4.30
2010,04,16,01,15,4.30
2010,04,16,01,16,4.30
2010,04,16,01,17,4.30
2010,04,16,01,18,4.30
2010,04,16,01,19,4.20
2010,04,16,01,20,4.20
2010,04,16,01,21,4.20
2010,04,16,01,22,4.20
2010,04,16,01,23,4.20
2010,04,16,01,24,4.20
2010,04,16,01,25,4.20
2010,04,16,01,26,4.20
2010,04,16,01,27,4.30
2010,04,16,01,28,4.30
2010,04,16,01,29,4.30
2010,04,16,01,30,4.30
2010,04,16,01,31,4.20
2010,04,16,01,32,4.20
2010,04,16,01,33,4.20
2010,04,16,01,34,4.10
2010,04,16,01,35,4.10
2010,04,16,01,36,4.00
2010,04,16,01,37,4.00
2010,04,16,01,38,3.90
2010,04,16,01,39,3.90
2010,04,16,01,40,3.90
2010,04,16,01,41,3.90
2010,04,16,01,42,3.90
2010,04,16,01,43,3.90
2010,04,16,01,44,3.90
2010,04,16,01,45,3.90
2010,04,16,01,46,3.90
2010,04,16,01,47,3.80
2010,04,16,01,48,3.80
2010,04,16,01,49,3.80
2010,04,16,01,50,3.80
2010,04,16,01,51,3.80
2010,04,16,01,52,3.80
2010,04,16,01,53,3.80
2010,04,16,01,54,3.80
2010,04,16,01,55,3.80
2010,04,16,01,56,3.80
2010,04,16,01,57,3.80
2010,04,16,01,58,3.80
2010,04,16,01,59,3.90
2010,04,16,02,00,3.90
2010,04,16,02,01,3.80
2010,04,16,02,02,3.80
2010,04,16,02,03,3.80
2010,04,16,02,04,3.80
2010,04,16,02,05,3.80
2010,04,16,02,06,3.80
2010,04,16,02,07,3.70
2010,04,16,02,08,3.70
2010,04,16,02,09,3.70
2010,04,16,02,10,3.60
2010,04,16,02,11,3.60
2010,04,16,02,12,3.60
2010,04,16,02,13,3.60
2010,04,16,02,14,3.50
2010,04,16,02,15,3.60
2010,04,16,02,16,3.60
2010,04,16,02,17,3.60
2010,04,16,02,18,3.60
2010,04,16,02,19,3.60
2010,04,16,02,20,3.60
2010,04,16,02,21,3.60
2010,04,16,02,22,3.70
2010,04,16,02,23,3.70
2010,04,16,02,24,3.80
2010,04,16,02,25,3.80
2010,04,16,02,26,3.80
2010,04,16,02,27,3.80
2010,04,16,02,28,3.80
2010,04,16,02,29,3.80
2010,04,16,02,30,3.70
2010,04,16,02,31,3.70
2010,04,16,02,32,3.70
2010,04,16,02,33,3.60
2010,04,16,02,34,3.60
2010,04,16,02,35,3.60
2010,04,16,02,36,3.60
2010,04,16,02,37,3.60
2010,04,16,02,38,3.60
2010,04,16,02,39,3.60
2010,04,16,02,40,3.60
2010,04,16,02,41,3.60
2010,04,16,02,42,3.60
2010,04,16,02,43,3.70
2010,04,16,02,44,3.60
2010,04,16,02,45,3.70
2010,04,16,02,46,3.70
2010,04,16,02,47,3.70
2010,04,16,02,48,3.70
2010,04,16,02,49,3.70
2010,04,16,02,50,3.70
2010,04,16,02,51,3.60
2010,04,16,02,52,3.60
2010,04,16,02,53,3.60
2010,04,16,02,54,3.60
2010,04,16,02,55,3.60
2010,04,16,02,56,3.60
2010,04,16,02,57,3.60
2010,04,16,02,58,3.60
2010,04,16,02,59,3.60
2010,04,16,03,00,3.60
2010,04,16,03,01,3.50
2010,04,16,03,02,3.50
2010,04,16,03,06,3.40
2010,04,16,03,07,3.40
2010,04,16,03,08,3.40
2010,04,16,03,09,3.40
2010,04,16,03,10,3.40
2010,04,16,03,11,3.40
2010,04,16,03,12,3.40
2010,04,16,03,13,3.50
2010,04,16,03,14,3.50
2010,04,16,03,15,3.50
2010,04,16,03,16,3.50
2010,04,16,03,17,3.50
2010,04,16,03,18,3.50
2010,04,16,03,19,3.50
2010,04,16,03,20,3.50
2010,04,16,03,21,3.50
2010,04,16,03,22,3.50
2010,04,16,03,23,3.50
2010,04,16,03,24,3.50
2010,04,16,03,25,3.50
2010,04,16,03,26,3.50
2010,04,16,03,27,3.50
2010,04,16,03,28,3.50
2010,04,16,03,29,3.40
2010,04,16,03,30,3.40
2010,04,16,03,31,3.40
2010,04,16,03,32,3.40
2010,04,16,03,33,3.40
2010,04,16,03,34,3.40
2010,04,16,03,35,3.40
2010,04,16,03,36,3.40
2010,04,16,03,37,3.40
2010,04,16,03,38,3.40
2010,04,16,03,39,3.40
2010,04,16,03,40,3.40
2010,04,16,03,41,3.40
2010,04,16,03,42,3.40
2010,04,16,03,43,3.40
2010,04,16,03,44,3.40
2010,04,16,03,45,3.40
2010,04,16,03,46,3.40
2010,04,16,03,47,3.50
2010,04,16,03,48,3.50
2010,04,16,03,49,3.50
2010,04,16,03,50,3.50
2010,04,16,03,51,3.50
2010,04,16,03,52,3.50
2010,04,16,03,53,3.40
2010,04,16,03,54,3.40
2010,04,16,03,55,3.40
2010,04,16,03,56,3.40
2010,04,16,03,57,3.40
2010,04,16,03,58,3.40
2010,04,16,03,59,3.50
2010,04,16,04,00,3.50
2010,04,16,04,01,3.50
2010,04,16,04,02,3.50
2010,04,16,04,03,3.50
2010,04,16,04,04,3.50
2010,04,16,04,05,3.50
2010,04,16,04,06,3.60
2010,04,16,04,07,3.60
2010,04,16,04,08,3.70
2010,04,16,04,09,3.70
2010,04,16,04,10,3.70
2010,04,16,04,11,3.60
2010,04,16,04,12,3.60
2010,04,16,04,13,3.60
2010,04,16,04,14,3.60
2010,04,16,04,15,3.50
2010,04,16,04,16,3.50
2010,04,16,04,17,3.50
2010,04,16,04,18,3.50
2010,04,16,04,19,3.50
2010,04,16,04,20,3.50
2010,04,16,04,21,3.40
2010,04,16,04,22,3.40
2010,04,16,04,23,3.40
2010,04,16,04,24,3.50
2010,04,16,04,25,3.50
2010,04,16,04,26,3.50
2010,04,16,04,27,3.50
2010,04,16,04,28,3.50
2010,04,16,04,29,3.60
2010,04,16,04,30,3.50
2010,04,16,04,31,3.50
2010,04,16,04,32,3.50
2010,04,16,04,33,3.50
2010,04,16,04,34,3.50
2010,04,16,04,35,3.50
2010,04,16,04,36,3.50
2010,04,16,04,37,3.50
2010,04,16,04,38,3.50
2010,04,16,04,39,3.50
2010,04,16,04,40,3.50
2010,04,16,04,41,3.50
2010,04,16,04,42,3.50
2010,04,16,04,43,3.50
2010,04,16,04,44,3.50
2010,04,16,04,45,3.50
2010,04,16,04,46,3.50
2010,04,16,04,47,3.50
2010,04,16,04,48,3.50
2010,04,16,04,49,3.50
2010,04,16,04,50,3.50
2010,04,16,04,51,3.50
2010,04,16,04,52,3.50
2010,04,16,04,53,3.50
2010,04,16,04,54,3.50
2010,04,16,04,55,3.50
2010,04,16,04,56,3.60
2010,04,16,04,57,3.60
2010,04,16,04,58,3.60
2010,04,16,04,59,3.60
2010,04,16,05,00,3.50
2010,04,16,05,01,3.50
2010,04,16,05,02,3.50
2010,04,16,05,03,3.50
2010,04,16,05,04,3.50
2010,04,16,05,05,3.50
2010,04,16,05,06,3.50
2010,04,16,05,07,3.50
2010,04,16,05,08,3.40
2010,04,16,05,09,3.40
2010,04,16,05,10,3.40
2010,04,16,05,11,3.40
2010,04,16,05,12,3.40
2010,04,16,05,13,3.40
2010,04,16,05,14,3.40
2010,04,16,05,15,3.40
2010,04,16,05,16,3.40
2010,04,16,05,17,3.40
2010,04,16,05,18,3.40
2010,04,16,05,19,3.50
2010,04,16,05,20,3.50
2010,04,16,05,21,3.50
2010,04,16,05,22,3.60
2010,04,16,05,23,3.60
2010,04,16,05,24,3.60
2010,04,16,05,25,3.70
2010,04,16,05,26,3.70
2010,04,16,05,27,3.70
2010,04,16,05,28,3.70
2010,04,16,05,29,3.80
2010,04,16,05,30,3.80
2010,04,16,05,31,3.80
2010,04,16,05,32,3.80
2010,04,16,05,33,3.90
2010,04,16,05,34,3.80
2010,04,16,05,35,3.80
2010,04,16,05,36,3.80
2010,04,16,05,37,3.80
2010,04,16,05,38,3.80
2010,04,16,05,39,3.80
2010,04,16,05,40,3.80
2010,04,16,05,41,3.80
2010,04,16,05,42,3.80
2010,04,16,05,43,3.80
2010,04,16,05,44,3.80
2010,04,16,05,45,3.90
2010,04,16,05,46,4.00
2010,04,16,05,47,4.00
2010,04,16,05,48,4.10
2010,04,16,05,49,4.10
2010,04,16,05,50,4.10
2010,04,16,05,51,4.20
2010,04,16,05,52,4.20
2010,04,16,05,53,4.20
2010,04,16,05,54,4.20
2010,04,16,05,55,4.20
2010,04,16,05,56,4.10
2010,04,16,05,57,4.10
2010,04,16,05,58,4.10
2010,04,16,05,59,4.10
2010,04,16,06,00,4.10
2010,04,16,06,01,4.10
2010,04,16,06,02,4.10
2010,04,16,06,03,4.20
2010,04,16,06,04,4.20
2010,04,16,06,05,4.10
2010,04,16,06,06,4.10
2010,04,16,06,07,4.10
2010,04,16,06,08,4.00
2010,04,16,06,09,4.00
2010,04,16,06,10,4.00
2010,04,16,06,11,3.90
2010,04,16,06,12,3.90
2010,04,16,06,13,3.90
2010,04,16,06,14,3.90
2010,04,16,06,15,3.80
2010,04,16,06,16,3.80
2010,04,16,06,17,3.80
2010,04,16,06,18,3.90
2010,04,16,06,19,3.90
2010,04,16,06,20,3.90
2010,04,16,06,21,3.90
2010,04,16,06,22,3.90
2010,04,16,06,23,3.90
2010,04,16,06,24,3.90
2010,04,16,06,25,3.90
2010,04,16,06,26,3.90
2010,04,16,06,27,3.90
2010,04,16,06,28,3.90
2010,04,16,06,29,3.90
2010,04,16,06,30,3.90
2010,04,16,06,31,3.90
2010,04,16,06,32,3.80
2010,04,16,06,33,3.80
2010,04,16,06,34,3.80
2010,04,16,06,35,3.80
2010,04,16,06,36,3.80
2010,04,16,06,37,3.80
2010,04,16,06,38,3.80
2010,04,16,06,39,3.80
2010,04,16,06,40,3.80
2010,04,16,06,41,3.80
2010,04,16,06,42,3.80
2010,04,16,06,43,3.80
2010,04,16,06,44,3.80
2010,04,16,06,45,3.80
2010,04,16,06,46,3.80
2010,04,16,06,47,3.80
2010,04,16,06,48,3.80
2010,04,16,06,49,3.80
2010,04,16,06,50,3.70
2010,04,16,06,51,3.70
2010,04,16,06,52,3.70
2010,04,16,06,53,3.70
2010,04,16,06,54,3.70
2010,04,16,06,55,3.70
2010,04,16,06,56,3.70
2010,04,16,06,57,3.80
2010,04,16,06,58,3.80
2010,04,16,06,59,3.80
2010,04,16,07,00,3.80
2010,04,16,07,01,3.80
2010,04,16,07,02,3.80
2010,04,16,07,03,3.80
2010,04,16,07,04,3.90
2010,04,16,07,05,4.00
2010,04,16,07,06,4.00
2010,04,16,07,07,4.10
2010,04,16,07,08,4.10
2010,04,16,07,09,4.20
2010,04,16,07,10,4.20
2010,04,16,07,11,4.30
2010,04,16,07,12,4.30
2010,04,16,07,13,4.40
2010,04,16,07,14,4.40
2010,04,16,07,15,4.50
2010,04,16,07,16,4.60
2010,04,16,07,17,4.60
2010,04,16,07,18,4.70
2010,04,16,07,19,4.70
2010,04,16,07,20,4.70
2010,04,16,07,21,4.70
2010,04,16,07,22,4.70
2010,04,16,07,23,4.70
2010,04,16,07,24,4.70
2010,04,16,07,25,4.70
2010,04,16,07,26,4.70
2010,04,16,07,27,4.60
2010,04,16,07,28,4.60
2010,04,16,07,29,4.50
2010,04,16,07,30,4.50
2010,04,16,07,31,4.50
2010,04,16,07,32,4.50
2010,04,16,07,33,4.50
2010,04,16,07,34,4.60
2010,04,16,07,35,4.60
2010,04,16,07,36,4.70
2010,04,16,07,37,4.70
2010,04,16,07,38,4.80
2010,04,16,07,39,4.80
2010,04,16,07,40,4.90
2010,04,16,07,41,4.90
2010,04,16,07,42,5.00
2010,04,16,07,43,5.00
2010,04,16,07,44,5.10
2010,04,16,07,45,5.10
2010,04,16,07,46,5.10
2010,04,16,07,47,5.10
2010,04,16,07,48,5.10
2010,04,16,07,49,5.10
2010,04,16,07,50,5.10
2010,04,16,07,51,5.10
2010,04,16,07,52,5.10
2010,04,16,07,53,5.10
2010,04,16,07,54,5.20
2010,04,16,07,55,5.20
2010,04,16,07,56,5.20
2010,04,16,07,57,5.20
2010,04,16,07,58,5.30
2010,04,16,07,59,5.30
2010,04,16,08,00,5.30
2010,04,16,08,01,5.40
2010,04,16,08,02,5.50
2010,04,16,08,03,5.50
2010,04,16,08,04,5.60
2010,04,16,08,05,5.70
2010,04,16,08,06,5.80
2010,04,16,08,07,5.90
2010,04,16,08,08,6.00
2010,04,16,08,09,6.00
2010,04,16,08,10,6.10
2010,04,16,08,11,6.10
2010,04,16,08,12,6.10
2010,04,16,08,13,6.20
2010,04,16,08,14,6.20
2010,04,16,08,15,6.20
2010,04,16,08,16,6.20
2010,04,16,08,17,6.20
2010,04,16,08,18,6.20
2010,04,16,08,19,6.30
2010,04,16,08,20,6.30
2010,04,16,08,21,6.30
2010,04,16,08,22,6.40
2010,04,16,08,23,6.40
2010,04,16,08,24,6.50
2010,04,16,08,25,6.50
2010,04,16,08,26,6.60
2010,04,16,08,27,6.70
2010,04,16,08,28,6.80
2010,04,16,08,29,6.90
2010,04,16,08,30,6.90
2010,04,16,08,31,7.00
2010,04,16,08,32,7.20
2010,04,16,08,33,7.20
2010,04,16,08,34,7.40
2010,04,16,08,35,7.50
2010,04,16,08,36,7.60
2010,04,16,08,37,7.70
2010,04,16,08,38,7.80
2010,04,16,08,39,7.90
2010,04,16,08,40,8.00
2010,04,16,08,41,8.10
2010,04,16,08,42,8.20
2010,04,16,08,43,8.30
2010,04,16,08,44,8.30
2010,04,16,08,45,8.40
2010,04,16,08,46,8.50
2010,04,16,08,47,8.60
2010,04,16,08,48,8.70
2010,04,16,08,49,8.70
2010,04,16,08,50,8.80
2010,04,16,08,51,8.80
2010,04,16,08,52,8.90
2010,04,16,08,53,9.00
2010,04,16,08,54,9.10
2010,04,16,08,55,9.10
2010,04,16,08,56,9.20
2010,04,16,08,57,9.30
2010,04,16,08,58,9.40
2010,04,16,08,59,9.50
2010,04,16,09,00,9.60
2010,04,16,09,01,9.60
2010,04,16,09,02,9.70
2010,04,16,09,03,9.80
2010,04,16,09,04,9.90
2010,04,16,09,05,10.00
2010,04,16,09,06,10.10
2010,04,16,09,07,10.20
2010,04,16,09,08,10.20
2010,04,16,09,09,10.30
2010,04,16,09,10,10.40
2010,04,16,09,11,10.50
2010,04,16,09,12,10.60
2010,04,16,09,13,10.70
2010,04,16,09,14,10.80
2010,04,16,09,15,10.80
2010,04,16,09,16,10.90
2010,04,16,09,17,10.90
2010,04,16,09,18,11.00
2010,04,16,09,19,11.10
2010,04,16,09,20,11.10
2010,04,16,09,21,11.20
2010,04,16,09,22,11.30
2010,04,16,09,23,11.30
2010,04,16,09,24,11.40
2010,04,16,09,25,11.50
2010,04,16,09,26,11.60
2010,04,16,09,27,11.60
2010,04,16,09,28,11.70
2010,04,16,09,29,11.80
2010,04,16,09,30,11.90
2010,04,16,09,31,12.00
2010,04,16,09,32,12.00
2010,04,16,09,33,12.10
2010,04,16,09,34,12.10
2010,04,16,09,35,12.10
2010,04,16,09,36,12.10
2010,04,16,09,37,12.10
2010,04,16,09,38,12.10
2010,04,16,09,39,12.20
2010,04,16,09,40,12.20
2010,04,16,09,41,12.20
2010,04,16,09,42,12.30
2010,04,16,09,43,12.30
2010,04,16,09,44,12.30
2010,04,16,09,45,12.40
2010,04,16,09,46,12.40
2010,04,16,09,47,12.50
2010,04,16,09,48,12.60
2010,04,16,09,49,12.70
2010,04,16,09,50,12.70
2010,04,16,09,51,12.80
2010,04,16,09,52,12.90
2010,04,16,09,53,12.90
2010,04,16,09,54,13.00
2010,04,16,09,55,13.00
2010,04,16,09,56,13.00
2010,04,16,09,57,13.00
2010,04,16,09,58,13.00
2010,04,16,09,59,13.00
2010,04,16,10,00,13.00
2010,04,16,10,01,13.00
2010,04,16,10,02,13.00
2010,04,16,10,03,13.00
2010,04,16,10,04,13.10
2010,04,16,10,05,13.20
2010,04,16,10,06,13.20
2010,04,16,10,07,13.20
2010,04,16,10,08,13.20
2010,04,16,10,09,13.20
2010,04,16,10,10,13.30
2010,04,16,10,11,13.30
2010,04,16,10,12,13.30
2010,04,16,10,13,13.40
2010,04,16,10,14,13.40
2010,04,16,10,15,13.50
2010,04,16,10,16,13.50
2010,04,16,10,17,13.50
2010,04,16,10,18,13.60
2010,04,16,10,19,13.60
2010,04,16,10,20,13.70
2010,04,16,10,21,13.80
2010,04,16,10,22,13.90
2010,04,16,10,23,14.00
2010,04,16,10,24,14.10
2010,04,16,10,25,14.20
2010,04,16,10,26,14.20
2010,04,16,10,27,14.30
2010,04,16,10,28,14.30
2010,04,16,10,29,14.30
2010,04,16,10,30,14.30
2010,04,16,10,31,14.20
2010,04,16,10,32,14.20
2010,04,16,10,33,14.20
2010,04,16,10,34,14.20
2010,04,16,10,35,14.20
2010,04,16,10,36,14.20
2010,04,16,10,37,14.20
2010,04,16,10,38,14.20
2010,04,16,10,39,14.10
2010,04,16,10,40,14.10
2010,04,16,10,41,14.10
2010,04,16,10,42,14.10
2010,04,16,10,43,14.10
2010,04,16,10,44,14.20
2010,04,16,10,45,14.30
2010,04,16,10,46,14.30
2010,04,16,10,47,14.40
2010,04,16,10,48,14.50
2010,04,16,10,49,14.60
2010,04,16,10,50,14.60
2010,04,16,10,51,14.70
2010,04,16,10,52,14.70
2010,04,16,10,53,14.80
2010,04,16,10,54,14.80
2010,04,16,10,55,14.90
2010,04,16,10,56,15.00
2010,04,16,10,57,15.00
2010,04,16,10,58,15.00
2010,04,16,10,59,15.00
2010,04,16,11,00,15.00
2010,04,16,11,01,15.00
2010,04,16,11,02,14.90
2010,04,16,11,03,15.00
2010,04,16,11,04,15.00
2010,04,16,11,05,15.00
2010,04,16,11,06,15.00
2010,04,16,11,07,15.20
2010,04,16,11,08,15.30
2010,04,16,11,09,15.40
2010,04,16,11,10,15.50
2010,04,16,11,11,15.60
2010,04,16,11,12,15.60
2010,04,16,11,13,15.50
2010,04,16,11,14,15.50
2010,04,16,11,15,15.50
2010,04,16,11,16,15.50
2010,04,16,11,17,15.50
2010,04,16,11,18,15.40
2010,04,16,11,19,15.40
2010,04,16,11,20,15.40
2010,04,16,11,21,15.30
2010,04,16,11,22,15.30
2010,04,16,11,23,15.20
2010,04,16,11,24,15.20
2010,04,16,11,25,15.20
2010,04,16,11,26,15.40
2010,04,16,11,27,15.50
2010,04,16,11,28,15.60
2010,04,16,11,29,15.60
2010,04,16,11,30,15.60
2010,04,16,11,31,15.60
2010,04,16,11,32,15.70
2010,04,16,11,33,15.70
2010,04,16,11,34,15.70
2010,04,16,11,35,15.70
2010,04,16,11,36,15.70
2010,04,16,11,37,15.70
2010,04,16,11,38,15.70
2010,04,16,11,39,15.60
2010,04,16,11,40,15.60
2010,04,16,11,41,15.60
2010,04,16,11,42,15.60
2010,04,16,11,43,15.60
2010,04,16,11,44,15.50
2010,04,16,11,45,15.40
2010,04,16,11,46,15.40
2010,04,16,11,47,15.30
2010,04,16,11,48,15.20
2010,04,16,11,49,15.20
2010,04,16,11,50,15.10
2010,04,16,11,51,15.20
2010,04,16,11,52,15.10
2010,04,16,11,53,15.10
2010,04,16,11,54,15.00
2010,04,16,11,55,15.00
2010,04,16,11,56,15.00
2010,04,16,11,57,15.00
2010,04,16,11,58,15.00
2010,04,16,11,59,15.00
2010,04,16,12,00,15.00
2010,04,16,12,01,15.00
2010,04,16,12,02,15.00
2010,04,16,12,03,15.00
2010,04,16,12,04,15.10
2010,04,16,12,05,15.20
2010,04,16,12,06,15.20
2010,04,16,12,07,15.20
2010,04,16,12,08,15.10
2010,04,16,12,09,15.00
2010,04,16,12,10,15.00
2010,04,16,12,11,15.00
2010,04,16,12,12,15.00
2010,04,16,12,13,15.00
2010,04,16,12,14,15.10
2010,04,16,12,15,15.20
2010,04,16,12,16,15.10
2010,04,16,12,17,15.00
2010,04,16,12,18,15.00
2010,04,16,12,19,15.00
2010,04,16,12,20,15.00
2010,04,16,12,21,15.00
2010,04,16,12,22,15.10
2010,04,16,12,23,15.20
2010,04,16,12,24,15.20
2010,04,16,12,25,15.30
2010,04,16,12,26,15.30
2010,04,16,12,27,15.20
2010,04,16,12,28,15.20
2010,04,16,12,29,15.10
2010,04,16,12,30,15.10
2010,04,16,12,31,15.10
2010,04,16,12,32,15.20
2010,04,16,12,33,15.30
2010,04,16,12,34,15.30
2010,04,16,12,35,15.40
2010,04,16,12,36,15.50
2010,04,16,12,37,15.50
2010,04,16,12,38,15.50
2010,04,16,12,39,15.60
2010,04,16,12,40,15.60
2010,04,16,12,41,15.60
2010,04,16,12,42,15.60
2010,04,16,12,43,15.60
2010,04,16,12,44,15.70
2010,04,16,12,45,15.60
2010,04,16,12,46,15.50
2010,04,16,12,47,15.40
2010,04,16,12,48,15.30
2010,04,16,12,49,15.20
2010,04,16,12,50,15.20
2010,04,16,12,51,15.10
2010,04,16,12,52,15.10
2010,04,16,12,53,15.00
2010,04,16,12,54,15.00
2010,04,16,12,55,15.00
2010,04,16,12,56,15.00
2010,04,16,12,57,15.00
2010,04,16,12,58,15.00
2010,04,16,12,59,15.00
2010,04,16,13,00,15.00
2010,04,16,13,01,15.10
2010,04,16,13,02,15.20
2010,04,16,13,03,15.30
2010,04,16,13,04,15.30
2010,04,16,13,05,15.30
2010,04,16,13,06,15.30
2010,04,16,13,07,15.40
2010,04,16,13,08,15.40
2010,04,16,13,09,15.30
2010,04,16,13,10,15.30
2010,04,16,13,11,15.20
2010,04,16,13,12,15.10
2010,04,16,13,13,15.00
2010,04,16,13,14,15.00
2010,04,16,13,15,15.00
2010,04,16,13,16,15.00
2010,04,16,13,17,15.00
2010,04,16,13,18,15.00
2010,04,16,13,19,15.00
2010,04,16,13,20,15.00
2010,04,16,13,21,15.00
2010,04,16,13,22,15.00
2010,04,16,13,23,15.00
2010,04,16,13,24,15.00
2010,04,16,13,25,15.00
2010,04,16,13,26,15.10
2010,04,16,13,27,15.20
2010,04,16,13,28,15.30
2010,04,16,13,29,15.40
2010,04,16,13,30,15.40
2010,04,16,13,31,15.50
2010,04,16,13,32,15.50
2010,04,16,13,33,15.60
2010,04,16,13,34,15.60
2010,04,16,13,35,15.70
2010,04,16,13,36,15.70
2010,04,16,13,37,15.80
2010,04,16,13,38,15.90
2010,04,16,13,39,15.80
2010,04,16,13,40,15.80
2010,04,16,13,41,15.80
2010,04,16,13,42,15.70
2010,04,16,13,43,15.80
2010,04,16,13,44,15.80
2010,04,16,13,45,15.90
2010,04,16,13,46,16.00
2010,04,16,13,47,16.00
2010,04,16,13,48,16.00
2010,04,16,13,49,16.10
2010,04,16,13,50,16.10
2010,04,16,13,51,16.00
2010,04,16,13,52,15.90
2010,04,16,13,53,15.80
2010,04,16,13,54,15.80
2010,04,16,13,55,15.80
2010,04,16,13,56,15.90
2010,04,16,13,57,16.00
2010,04,16,13,58,16.00
2010,04,16,13,59,16.00
2010,04,16,14,00,16.00
2010,04,16,14,01,16.00
2010,04,16,14,02,16.00
2010,04,16,14,03,16.10
2010,04,16,14,04,16.10
2010,04,16,14,05,16.20
2010,04,16,14,06,16.30
2010,04,16,14,07,16.30
2010,04,16,14,08,16.40
2010,04,16,14,09,16.40
2010,04,16,14,10,16.50
2010,04,16,14,11,16.60
2010,04,16,14,12,16.60
2010,04,16,14,13,16.70
2010,04,16,14,14,16.70
2010,04,16,14,15,16.70
2010,04,16,14,16,16.70
2010,04,16,14,17,16.70
2010,04,16,14,18,16.60
2010,04,16,14,19,16.60
2010,04,16,14,20,16.60
2010,04,16,14,21,16.60
2010,04,16,14,22,16.60
2010,04,16,14,23,16.60
2010,04,16,14,24,16.60
2010,04,16,14,25,16.60
2010,04,16,14,26,16.70
2010,04,16,14,27,16.70
2010,04,16,14,28,16.80
2010,04,16,14,29,16.90
2010,04,16,14,30,17.00
2010,04,16,14,31,17.10
2010,04,16,14,32,17.10
2010,04,16,14,33,17.10
2010,04,16,14,34,17.20
2010,04,16,14,35,17.20
2010,04,16,14,36,17.20
2010,04,16,14,37,17.30
2010,04,16,14,38,17.30
2010,04,16,14,39,17.30
2010,04,16,14,40,17.30
2010,04,16,14,41,17.30
2010,04,16,14,42,17.30
2010,04,16,14,43,17.30
2010,04,16,14,44,17.40
2010,04,16,14,45,17.30
2010,04,16,14,46,17.40
2010,04,16,14,47,17.30
2010,04,16,14,48,17.30
2010,04,16,14,49,17.20
2010,04,16,14,50,17.10
2010,04,16,14,51,17.10
2010,04,16,14,52,17.00
2010,04,16,14,53,17.00
2010,04,16,14,54,16.90
2010,04,16,14,55,16.90
2010,04,16,14,56,16.80
2010,04,16,14,57,16.90
2010,04,16,14,58,16.90
2010,04,16,14,59,16.90
2010,04,16,15,00,16.80
2010,04,16,15,01,16.80
2010,04,16,15,02,16.80
2010,04,16,15,03,16.80
2010,04,16,15,04,16.80
2010,04,16,15,05,16.80
2010,04,16,15,06,16.80
2010,04,16,15,07,16.80
2010,04,16,15,08,16.80
2010,04,16,15,09,16.80
2010,04,16,15,10,16.80
2010,04,16,15,11,16.80
2010,04,16,15,12,16.80
2010,04,16,15,13,16.70
2010,04,16,15,14,16.80
2010,04,16,15,15,16.80
2010,04,16,15,16,16.80
2010,04,16,15,17,16.90
2010,04,16,15,18,16.90
2010,04,16,15,19,16.90
2010,04,16,15,20,17.00
2010,04,16,15,21,17.00
2010,04,16,15,22,17.00
2010,04,16,15,23,17.10
2010,04,16,15,24,17.10
2010,04,16,15,25,17.10
2010,04,16,15,26,17.10
2010,04,16,15,27,17.10
2010,04,16,15,28,17.10
2010,04,16,15,29,17.10
2010,04,16,15,30,17.00
2010,04,16,15,31,16.90
2010,04,16,15,32,17.00
2010,04,16,15,33,17.00
2010,04,16,15,34,17.10
2010,04,16,15,35,17.20
2010,04,16,15,36,17.30
2010,04,16,15,37,17.40
2010,04,16,15,38,17.50
2010,04,16,15,39,17.60
2010,04,16,15,40,17.60
2010,04,16,15,41,17.70
2010,04,16,15,42,17.70
2010,04,16,15,43,17.70
2010,04,16,15,44,17.70
2010,04,16,15,45,17.70
2010,04,16,15,46,17.60
2010,04,16,15,47,17.50
2010,04,16,15,48,17.50
2010,04,16,15,49,17.40
2010,04,16,15,50,17.40
2010,04,16,15,51,17.30
2010,04,16,15,52,17.30
2010,04,16,15,53,17.30
2010,04,16,15,54,17.20
2010,04,16,15,55,17.20
2010,04,16,15,56,17.20
2010,04,16,15,57,17.10
2010,04,16,15,58,17.10
2010,04,16,15,59,17.10
2010,04,16,16,00,17.10
2010,04,16,16,01,17.10
2010,04,16,16,02,17.10
2010,04,16,16,03,17.20
2010,04,16,16,04,17.20
2010,04,16,16,05,17.20
2010,04,16,16,06,17.20
2010,04,16,16,07,17.30
2010,04,16,16,08,17.40
2010,04,16,16,09,17.40
2010,04,16,16,10,17.40
2010,04,16,16,11,17.40
2010,04,16,16,12,17.40
2010,04,16,16,13,17.40
2010,04,16,16,14,17.40
2010,04,16,16,15,17.40
2010,04,16,16,16,17.40
2010,04,16,16,17,17.40
2010,04,16,16,18,17.30
2010,04,16,16,19,17.30
2010,04,16,16,20,17.30
2010,04,16,16,21,17.30
2010,04,16,16,22,17.30
2010,04,16,16,23,17.30
2010,04,16,16,24,17.30
2010,04,16,16,25,17.30
2010,04,16,16,26,17.30
2010,04,16,16,27,17.30
2010,04,16,16,28,17.20
2010,04,16,16,29,17.20
2010,04,16,16,30,17.20
2010,04,16,16,31,17.20
2010,04,16,16,32,17.30
2010,04,16,16,33,17.30
2010,04,16,16,34,17.30
2010,04,16,16,35,17.30
2010,04,16,16,36,17.20
2010,04,16,16,37,17.20
2010,04,16,16,38,17.20
2010,04,16,16,39,17.10
2010,04,16,16,40,17.00
2010,04,16,16,41,16.90
2010,04,16,16,42,16.80
2010,04,16,16,43,16.70
2010,04,16,16,44,16.70
2010,04,16,16,45,16.60
2010,04,16,16,46,16.60
2010,04,16,16,47,16.60
2010,04,16,16,48,16.60
2010,04,16,16,49,16.50
2010,04,16,16,50,16.50
2010,04,16,16,51,16.50
2010,04,16,16,52,16.50
2010,04,16,16,53,16.50
2010,04,16,16,54,16.60
2010,04,16,16,55,16.60
2010,04,16,16,56,16.60
2010,04,16,16,57,16.60
2010,04,16,16,58,16.60
2010,04,16,16,59,16.60
2010,04,16,17,00,16.60
2010,04,16,17,01,16.60
2010,04,16,17,02,16.60
2010,04,16,17,03,16.60
2010,04,16,17,04,16.60
2010,04,16,17,05,16.60
2010,04,16,17,06,16.60
2010,04,16,17,07,16.60
2010,04,16,17,08,16.60
2010,04,16,17,09,16.70
2010,04,16,17,10,16.70
2010,04,16,17,11,16.70
2010,04,16,17,12,16.80
2010,04,16,17,13,16.80
2010,04,16,17,14,16.80
2010,04,16,17,15,16.80
2010,04,16,17,16,16.80
2010,04,16,17,17,16.80
2010,04,16,17,18,16.80
2010,04,16,17,19,16.80
2010,04,16,17,20,16.80
2010,04,16,17,21,16.80
2010,04,16,17,22,16.80
2010,04,16,17,23,16.80
2010,04,16,17,24,16.80
2010,04,16,17,25,16.80
2010,04,16,17,26,16.80
2010,04,16,17,27,16.80
2010,04,16,17,28,16.80
2010,04,16,17,29,16.90
2010,04,16,17,30,16.90
2010,04,16,17,31,16.90
2010,04,16,17,32,16.90
2010,04,16,17,33,16.90
2010,04,16,17,34,16.80
2010,04,16,17,35,16.80
2010,04,16,17,36,16.80
2010,04,16,17,37,16.80
2010,04,16,17,38,16.70
2010,04,16,17,39,16.70
2010,04,16,17,40,16.60
2010,04,16,17,41,16.60
2010,04,16,17,42,16.60
2010,04,16,17,43,16.60
2010,04,16,17,44,16.50
2010,04,16,17,45,16.50
2010,04,16,17,46,16.40